Weather Roundup
Issued by NWS

Home | Current Version | Previous Version | Text Only | Print | Product List | Glossary On
Versions: 1 2 3 4 5 6 7 8 9 10 11 12 13 14 15 16 17 18 19 20 21 22 23 24 25 26 27 28 29 30 31 32 33 34 35 36 37 38 39 40 41 42 43 44 45 46 47 48 49 50
899
NZUS93 KARX 200210
HRRWXR

CURRENT HOURLY OBSERVATIONS ACROSS
MUCH OF THE UPPER MISSISSIPPI VALLEY
NATIONAL WEATHER SERVICE LA CROSSE WI
800 PM CST MON FEB 19 2018


...SOUTHEAST MINNESOTA...


CITY           SKY/WX    TMP DP  RH WIND       PRES   REMARKS
ROCHESTER      LGT SNOW  24  24 100 N13       29.78S FOG     WCI  12
ROCHESTER/MAYO CLOUDY    24  24 100 N7        29.80S WCI  16
WINONA         CLOUDY    30  30 100 N5        29.80S FOG     WCI  25
AUSTIN         CLOUDY    25  21  86 N7        29.78R FOG     WCI  17
ALBERT LEA     CLOUDY    25  21  86 N9        29.80R WCI  15
DODGE CENTER   CLOUDY    21  21 100 N10       29.80R FOG     WCI  10
PRESTON        CLOUDY    28  27  96 N10       29.76S FOG     WCI  19
OWATONNA       CLOUDY    25  21  86 N9        29.81S FOG     WCI  15
FARIBAULT      CLOUDY    21  21 100 N12       29.84F FOG     WCI   9
$$

...ELSEWHERE IN MINNESOTA...


CITY           SKY/WX    TMP DP  RH WIND       PRES   REMARKS
MINNEAPOLIS    FRZ DRZL  21  20  96 NE14      29.90F FOG     WCI   8
INTNL FALLS    CLOUDY     9  -2  61 NE9       30.15F WCI  -4
DULUTH         LGT SNOW  12   7  80 NE10      30.01F VSB 1   WCI  -1
RED WING       CLOUDY    25  19  80 NE7       29.86F HAZE    WCI  17
REDWOOD FALLS  CLOUDY    16  14  92 N10       29.92F WCI   4
MANKATO        MIX PCPN  20  19  96 MISG      29.85F FOG
WORTHINGTON    FLURRIES  15  12  88 N17       29.86S WCI  -1
FAIRMONT       CLOUDY    19  18  95 N17       29.85R FOG     WCI   4
$$

...SOUTHWEST WISCONSIN...


CITY           SKY/WX    TMP DP  RH WIND       PRES   REMARKS
LA CROSSE      CLOUDY    35  33  92 NE9       29.79R FOG     WCI  28
PRAIRIE DU CHI FOG       37  36  95 CALM      29.74S VSB 1/2
BOSCOBEL       CLOUDY    37  36  96 NE7       29.76R FOG     WCI  32
LONE ROCK      CLOUDY    35  35 100 E5        29.76S FOG     WCI  31
PLATTEVILLE    CLOUDY    37  37 100 E9        29.73S WCI  30
FORT MC COY    CLOUDY    31  31  99 NE7       29.80R FOG     WCI  24
CAMP DOUGLAS   FRZ DRZL  31  30  99 E6        29.80R FOG     WCI  25
MAUSTON-NEW LI MIX PCPN N/A N/A N/A E5        29.80S
VIROQUA        CLOUDY    33  33 100 E13       29.73F WCI  24
WIS DELLS      CLOUDY    32  31  97 NE8       29.77S FOG     WCI  24
$$

...ELSEWHERE IN WISCONSIN...


CITY           SKY/WX    TMP DP  RH WIND       PRES   REMARKS
MILWAUKEE      LGT RAIN  37  36  96 N5        29.80F FOG     WCI  33
MADISON        LGT RAIN  35  34  96 E8        29.77F FOG     WCI  29
GREEN BAY      FRZ RAIN  28  25  88 NE24G31   29.85F FOG     WCI  14
EAU CLAIRE     CLOUDY    23  21  92 NE14G21   29.86S FOG     WCI  11
BLACK RVR FLS  LGT SNOW  30  30  99 NE9G16    29.82R WCI  21
MEDFORD        CLOUDY    22  20  92 NE13      29.84R FOG     WCI  10
WAUSAU         FRZ RAIN  25  23  92 NE9       29.82F FOG     WCI  15
WIS RAPIDS     CLOUDY    27  24  89 E10G17    29.82F FOG     WCI  17
MARSHFIELD     CLOUDY    26  24  92 E15       29.81R FOG     WCI  14
RICE LAKE      CLOUDY    20  18  94 N10       29.93F FOG     WCI   8
$$

...NORTHEAST IOWA...


CITY           SKY/WX    TMP DP  RH WIND       PRES   REMARKS
WATERLOO       FOG       33  33 100 W7        29.74R VSB 3/4 WCI  27
DUBUQUE        MIX PCPN  36  35  96 SW6       29.72S VSB 1/2 WCI  31
DECORAH        FOG       36  36 100 CALM      29.72F VSB 1/4
MASON CITY     CLOUDY    27  25  92 N15       29.79R FOG     WCI  15
CHARLES CITY   CLOUDY    32  32 100 N12       29.75S FOG     WCI  23
OELWEIN        FOG       34  34 100 SW6       29.73R VSB 1/4 WCI  29
$$

...ELSEWHERE IN IOWA...


CITY           SKY/WX    TMP DP  RH WIND       PRES   REMARKS
DES MOINES     FRZ DRZL  29  27  92 W12       29.83R FOG     WCI  19
IOWA CITY      LGT RAIN  40  32  73 W8        29.79R WCI  34
FORT DODGE     CLOUDY    25  24  96 VRB6      29.82R FOG     WCI  18
MARSHALLTOWN   CLOUDY    32  32 100 W10       29.77R FOG     WCI  24
CEDAR RAPIDS   CLOUDY    38  37  97 W7        29.76R FOG     WCI  33
$$

...NORTHERN ILLINOIS...


CITY           SKY/WX    TMP DP  RH WIND       PRES   REMARKS
CHICAGO-OHARE  LGT RAIN  58  55  90 S16G26    29.80F
CHICAGO-MIDWAY LGT RAIN  58  56  93 S14G24    29.83F
MOLINE         LGT RAIN  56  55  97 W12       29.74R FOG
ROCKFORD       FOG       47  47 100 S14       29.78S VSB 1/4
PEORIA         TSTM      62  58  86 SW13G32   29.80S FOG
$$

NOTE: "FAIR" INDICATES FEW OR NO CLOUDS BELOW 12,000 FEET WITH NO
SIGNIFICANT WEATHER AND/OR OBSTRUCTIONS TO VISIBILITY. WIND
SPEEDS ARE IN MILES-PER-HOUR.




USA.gov is the U.S. government's official web portal to all federal, state and local government web resources and services.